User: anonymous   Login
Location: Unspecified
(0.0000°N, 0.0000°E)
Time: 22:45:27
(UTC+00:00)
Language:

GALASSIA - Orbit

View from above orbital plane
View from above orbital plane
View from above satellite
View from above satellite

Ground track
Ground track

The orbit data is extracted from the following two-line orbital elements,

1 41170U 15077E   21023.25828714  .00002113  00000-0  72527-4 0  9992
2 41170  14.9874 239.1246 0012388 337.4885  22.4892 15.15360920282725
Epoch (UTC): 23 January 2021 06:11:56
Eccentricity: 0.0012388
inclination: 14.9874°
perigee height: 511 km
apogee height: 528 km
right ascension of ascending node: 239.1246°
argument of perigee: 337.4885°
revolutions per day: 15.15360920
mean anomaly at epoch: 22.4892°
orbit number at epoch: 28272

The dashed part of the orbit path shows where the satellite is in the earth's shadow,  

DLR